Aeroporto :
LOGIN :

Iscrizione | Disclaimer

   EN    FR    IT 

 










Sommario :    VFR   VFR Marginale   IFR   IFR Intensivo   IFR Molto Intensivo
Visibilità : 
Base nubi : 
>= 8 km
>= 3000ft
5 / 8 km
1000 / 3000 ft
1500m / 5 km
500 / 1000 ft
800 / 1500m
200 / 500 ft
< 800m
< 200 ft
Simboli :   Temporali  Nebbia  Neve Forte  Precipitazioni Forti  Vento > 20 kt
SIGMETs :   Varie  Temporali  Ghiacco  Turbolenza  Onda orograficha  Ceneri Vulcaniche






- Altitudine del aeroporto : 2077 ft
- Codice IATA : FMM


EDJA - Memmingen

ULTIMO METAR :
  • 201020Z 17006KT CAVOK 02/M03 Q1010

METARs OBSOLETI :
  • 200950Z 22009KT CAVOK 02/M03 Q1011
  • 200920Z 22011KT CAVOK 01/M04 Q1011
  • 200850Z 20007KT CAVOK M00/M04 Q1011
  • 200820Z 20011KT CAVOK M00/M04 Q1011
  • 200750Z 22011KT CAVOK 01/M04 Q1011

TAF TAF EDJA
Valido dal 20 a 09 ore il 20 a 18 ore UTC


200800Z 2009/2018 20010KT CAVOK
BECMG 2015/2017 18005KT



MetMap, La meteo Aeronautica in un colpo d'occhio ! - Copyright ORBIFLY Dicembre 2007 - Disclaimer

ORBIFLY MET'MAP TEAM :

Programmazione e sviluppo : Alexandra Zaïnal
Concezione : Baudouin d'Aumeries
Aiuto per la programmazione : Marc-Olivier Méhu
Supporto tecnico e logistico : Manuel Goepfert
Aiuto per la traduzione : Arnaldo La Scala

Contatto : metmap@orbifly.com




FONTI E CREDITI :

   NOAA